GW4109 Weather Reports


time (UTC)temp
C
wind
direction
speed
KPH
gust
KPH
rain 1hr
cm
rain 24hr
cm
rain mn
cm
humidity
%
barometer
mb
20260508203625 38 305 12.9 16.1 0.00 0.00 0.00 11 1013.6
20260508203121 38 333 14.5 19.3 0.00 0.00 0.00 11 1013.5
20260508202617 38 313 12.9 20.9 0.00 0.00 0.00 10 1013.5
20260508202115 38 217 8.0 22.5 0.00 0.00 0.00 11 1013.4
20260508201611 39 286 14.5 24.1 0.00 0.00 0.00 10 1013.6
20260508201108 38 316 9.7 22.5 0.00 0.00 0.00 11 1013.6
20260508200605 38 312 14.5 22.5 0.00 0.00 0.00 11 1013.7
20260508195557 38 296 17.7 27.4 0.00 0.00 0.00 11 1013.7
20260508195054 38 314 16.1 22.5 0.00 0.00 0.00 11 1013.7
20260508194551 38 289 9.7 25.7 0.00 0.00 0.00 12 1013.8
20260508194048 38 316 14.5 19.3 0.00 0.00 0.00 12 1013.9
20260508193544 39 246 14.5 19.3 0.00 0.00 0.00 11 1014.0
20260508193041 38 304 8.0 22.5 0.00 0.00 0.00 11 1013.9
20260508192538 38 261 12.9 25.7 0.00 0.00 0.00 11 1014.0
20260508192035 38 320 17.7 24.1 0.00 0.00 0.00 10 1014.0
20260508191532 38 338 4.8 9.7 0.00 0.00 0.00 11 1014.1
20260508191028 38 325 11.3 16.1 0.00 0.00 0.00 11 1014.1
20260508190526 38 356 3.2 17.7 0.00 0.00 0.00 11 1014.3
20260508190022 38 257 1.6 8.0 0.00 0.00 0.00 11 1014.3
20260508185519 40 228 1.6 4.8 0.00 0.00 0.00 12 1014.4
20260508185017 39 320 1.6 4.8 0.00 0.00 0.00 13 1014.3
20260508184514 38 44 0.0 3.2 0.00 0.00 0.00 12 1014.4
20260508184011 38 53 4.8 9.7 0.00 0.00 0.00 12 1014.5
20260508183507 38 93 4.8 9.7 0.00 0.00 0.00 13 1014.5
20260508183003 38 130 6.4 6.4 0.00 0.00 0.00 12 1014.3
20260508182500 38 119 8.0 9.7 0.00 0.00 0.00 12 1014.6
20260508181956 38 105 4.8 12.9 0.00 0.00 0.00 13 1014.5
20260508181452 37 174 4.8 6.4 0.00 0.00 0.00 13 1014.5
20260508180950 38 191 4.8 6.4 0.00 0.00 0.00 13 1014.6
20260508180446 37 109 6.4 9.7 0.00 0.00 0.00 13 1014.7
20260508175942 37 309 6.4 6.4 0.00 0.00 0.00 14 1014.8
20260508175439 37 161 1.6 11.3 0.00 0.00 0.00 13 1014.8
20260508174937 37 216 4.8 6.4 0.00 0.00 0.00 13 1014.8
20260508174434 37 180 3.2 8.0 0.00 0.00 0.00 13 1014.9
20260508173931 37 80 1.6 8.0 0.00 0.00 0.00 13 1014.9
20260508173428 37 160 1.6 8.0 0.00 0.00 0.00 13 1014.8
20260508172923 37 108 3.2 8.0 0.00 0.00 0.00 13 1014.7
20260508172422 36 107 3.2 9.7 0.00 0.00 0.00 14 1014.8
20260508171917 36 182 3.2 9.7 0.00 0.00 0.00 14 1014.7
20260508171414 36 145 3.2 8.0 0.00 0.00 0.00 14 1014.9
20260508170910 36 102 4.8 8.0 0.00 0.00 0.00 15 1015.0
20260508170408 37 114 6.4 6.4 0.00 0.00 0.00 14 1014.9
20260508165904 36 208 3.2 6.4 0.00 0.00 0.00 15 1014.9
20260508165403 36 239 4.8 4.8 0.00 0.00 0.00 15 1014.9
20260508164858 35 170 4.8 8.0 0.00 0.00 0.00 16 1015.1
20260508164355 35 135 3.2 6.4 0.00 0.00 0.00 16 1015.2
20260508163853 35 111 0.0 8.0 0.00 0.00 0.00 16 1015.1
20260508163350 35 188 4.8 6.4 0.00 0.00 0.00 17 1015.2
20260508162845 35 111 1.6 6.4 0.00 0.00 0.00 17 1015.1
20260508162342 35 177 0.0 4.8 0.00 0.00 0.00 17 1015.1
20260508161839 33 171 3.2 3.2 0.00 0.00 0.00 17 1015.0
20260508161337 34 100 3.2 4.8 0.00 0.00 0.00 17 1015.1
20260508160834 33 169 3.2 6.4 0.00 0.00 0.00 18 1015.1
20260508160333 33 197 3.2 4.8 0.00 0.00 0.00 19 1015.2
20260508155828 33 105 3.2 3.2 0.00 0.00 0.00 19 1015.2
20260508155326 33 78 3.2 6.4 0.00 0.00 0.00 19 1015.1
20260508154822 33 70 3.2 4.8 0.00 0.00 0.00 19 1015.2
20260508154320 32 63 1.6 4.8 0.00 0.00 0.00 20 1015.0
20260508153816 32 47 1.6 6.4 0.00 0.00 0.00 20 1015.1
20260508153314 32 110 8.0 8.0 0.00 0.00 0.00 20 1015.2
20260508152810 31 93 3.2 4.8 0.00 0.00 0.00 20 1015.3
20260508152306 32 89 4.8 6.4 0.00 0.00 0.00 20 1015.2
20260508151802 31 198 0.0 9.7 0.00 0.00 0.00 21 1015.2
20260508151300 32 357 1.6 3.2 0.00 0.00 0.00 20 1015.2
20260508150756 32 101 3.2 4.8 0.00 0.00 0.00 20 1015.1
20260508150253 31 17 0.0 3.2 0.00 0.00 0.00 21 1015.2
20260508145749 31 83 0.0 3.2 0.00 0.00 0.00 21 1015.1
20260508145245 30 93 8.0 8.0 0.00 0.00 0.00 22 1015.0
20260508144742 30 294 3.2 3.2 0.00 0.00 0.00 22 1015.1
20260508144240 30 164 0.0 3.2 0.00 0.00 0.00 23 1015.1
20260508143737 30 231 0.0 3.2 0.00 0.00 0.00 23 1015.0
20260508143234 28 276 0.0 6.4 0.00 0.00 0.00 24 1015.1
20260508142730 30 89 0.0 3.2 0.00 0.00 0.00 23 1015.0
20260508142228 28 214 1.6 3.2 0.00 0.00 0.00 24 1015.0
20260508141724 28 24 1.6 1.6 0.00 0.00 0.00 24 1015.1
20260508141222 27 308 1.6 3.2 0.00 0.00 0.00 25 1015.0
20260508140719 26 106 0.0 3.2 0.00 0.00 0.00 26 1014.7
20260508140215 26 262 3.2 3.2 0.00 0.00 0.00 27 1015.0
20260508135712 25 12 0.0 4.8 0.00 0.00 0.00 28 1015.0
20260508135207 26 4 0.0 3.2 0.00 0.00 0.00 27 1014.7
20260508134703 26 111 1.6 3.2 0.00 0.00 0.00 28 1014.5
20260508134201 25 276 0.0 3.2 0.00 0.00 0.00 27 1014.6
20260508133658 23 190 3.2 3.2 0.00 0.00 0.00 29 1014.6
20260508133155 23 66 0.0 3.2 0.00 0.00 0.00 28 1014.5
20260508132653 23 218 0.0 3.2 0.00 0.00 0.00 30 1014.5
20260508132149 21 200 3.2 3.2 0.00 0.00 0.00 31 1014.4
20260508131645 21 221 3.2 3.2 0.00 0.00 0.00 31 1014.4
20260508131142 22 215 0.0 4.8 0.00 0.00 0.00 31 1014.4
20260508130638 22 109 1.6 3.2 0.00 0.00 0.00 31 1014.2
20260508130136 22 113 0.0 3.2 0.00 0.00 0.00 30 1014.2
20260508125631 22 204 0.0 4.8 0.00 0.00 0.00 30 1014.2
20260508125128 22 81 1.6 3.2 0.00 0.00 0.00 31 1014.1
20260508124626 22 148 1.6 3.2 0.00 0.00 0.00 30 1014.2
20260508124123 22 118 3.2 4.8 0.00 0.00 0.00 30 1013.9
20260508123621 23 79 1.6 3.2 0.00 0.00 0.00 30 1013.9
20260508123118 23 234 1.6 3.2 0.00 0.00 0.00 30 1013.9
20260508122614 23 199 0.0 3.2 0.00 0.00 0.00 29 1013.9
20260508122112 23 268 0.0 3.2 0.00 0.00 0.00 30 1013.7
20260508121610 23 174 3.2 3.2 0.00 0.00 0.00 30 1014.0
20260508121108 23 221 3.2 6.4 0.00 0.00 0.00 30 1013.9
20260508120605 23 345 1.6 4.8 0.00 0.00 0.00 28 1014.0
20260508120104 25 333 3.2 3.2 0.00 0.00 0.00 28 1013.9
20260508115601 25 69 0.0 1.6 0.00 0.00 0.00 28 1013.7
20260508115057 25 289 3.2 4.8 0.00 0.00 0.00 27 1013.8
20260508114554 26 27 8.0 8.0 0.00 0.00 0.00 26 1013.9
20260508114050 25 111 4.8 8.0 0.00 0.00 0.00 27 1013.7
20260508113548 23 291 3.2 3.2 0.00 0.00 0.00 28 1013.8
20260508113046 22 205 0.0 4.8 0.00 0.00 0.00 30 1013.7
20260508112542 23 15 3.2 3.2 0.00 0.00 0.00 32 1013.7
20260508112039 23 221 1.6 3.2 0.00 0.00 0.00 29 1013.7
20260508111536 23 324 3.2 3.2 0.00 0.00 0.00 29 1014.0
20260508111033 23 178 3.2 4.8 0.00 0.00 0.00 29 1013.8
20260508110531 24 353 0.0 3.2 0.00 0.00 0.00 28 1013.7
20260508110027 25 342 3.2 3.2 0.00 0.00 0.00 28 1013.6
20260508105522 25 16 3.2 6.4 0.00 0.00 0.00 27 1013.6
20260508105019 24 142 4.8 6.4 0.00 0.00 0.00 27 1013.6
20260508104517 24 39 3.2 3.2 0.00 0.00 0.00 28 1013.7
20260508104013 25 345 1.6 3.2 0.00 0.00 0.00 27 1013.6
20260508103510 25 246 0.0 4.8 0.00 0.00 0.00 26 1013.6
20260508103008 24 320 0.0 3.2 0.00 0.00 0.00 28 1013.7
20260508102505 25 62 3.2 4.8 0.00 0.00 0.00 27 1013.5
20260508102002 25 109 1.6 3.2 0.00 0.00 0.00 27 1013.9
20260508101500 25 103 0.0 3.2 0.00 0.00 0.00 27 1013.7
20260508100957 25 73 0.0 3.2 0.00 0.00 0.00 27 1013.9
20260508100455 25 343 0.0 4.8 0.00 0.00 0.00 27 1013.9
20260508095951 25 237 0.0 3.2 0.00 0.00 0.00 26 1013.7
20260508095449 25 129 1.6 4.8 0.00 0.00 0.00 27 1013.9
20260508094946 25 291 3.2 9.7 0.00 0.00 0.00 26 1013.8
20260508094442 25 92 4.8 6.4 0.00 0.00 0.00 26 1013.7
20260508093939 26 89 1.6 3.2 0.00 0.00 0.00 26 1013.9
20260508093437 26 121 1.6 3.2 0.00 0.00 0.00 25 1013.9
20260508092934 26 19 1.6 4.8 0.00 0.00 0.00 25 1014.0
20260508092432 26 268 3.2 6.4 0.00 0.00 0.00 25 1013.9
20260508091930 25 171 1.6 4.8 0.00 0.00 0.00 26 1014.0
20260508091426 25 141 3.2 4.8 0.00 0.00 0.00 26 1014.0
20260508090923 26 210 0.0 1.6 0.00 0.00 0.00 25 1013.9
20260508090422 27 89 4.8 8.0 0.00 0.00 0.00 24 1014.0
20260508085917 27 243 0.0 6.4 0.00 0.00 0.00 23 1013.9
20260508085414 27 98 6.4 8.0 0.00 0.00 0.00 23 1013.8
20260508084911 26 353 4.8 6.4 0.00 0.00 0.00 24 1014.0
20260508084408 26 128 1.6 6.4 0.00 0.00 0.00 24 1014.0
20260508083906 25 230 4.8 4.8 0.00 0.00 0.00 24 1014.1
20260508083403 26 324 0.0 1.6 0.00 0.00 0.00 24 1014.3
20260508082903 25 174 0.0 3.2 0.00 0.00 0.00 24 1014.3
20260508082401 26 264 3.2 6.4 0.00 0.00 0.00 24 1014.3
20260508081858 26 226 3.2 4.8 0.00 0.00 0.00 24 1014.3
20260508081355 26 141 3.2 8.0 0.00 0.00 0.00 24 1014.5
20260508080851 26 271 1.6 6.4 0.00 0.00 0.00 24 1014.6
20260508080350 26 313 4.8 6.4 0.00 0.00 0.00 24 1014.5
20260508075846 26 161 3.2 6.4 0.00 0.00 0.00 24 1014.5
20260508075343 26 72 3.2 6.4 0.00 0.00 0.00 24 1014.6
20260508074840 26 60 0.0 1.6 0.00 0.00 0.00 24 1014.5
20260508074337 27 273 1.6 4.8 0.00 0.00 0.00 23 1014.7
20260508073834 27 154 4.8 6.4 0.00 0.00 0.00 23 1014.6
20260508073332 27 77 3.2 6.4 0.00 0.00 0.00 22 1014.6
20260508072828 27 229 4.8 8.0 0.00 0.00 0.00 22 1014.6
20260508072325 28 232 9.7 14.5 0.00 0.00 0.00 22 1014.7
20260508071822 28 112 4.8 6.4 0.00 0.00 0.00 21 1014.6
20260508071320 28 323 4.8 11.3 0.00 0.00 0.00 21 1014.7
20260508070817 27 84 11.3 12.9 0.00 0.00 0.00 22 1014.5
20260508070316 28 275 0.0 3.2 0.00 0.00 0.00 21 1014.5
20260508065813 28 323 6.4 8.0 0.00 0.00 0.00 22 1014.9
20260508065311 28 280 3.2 14.5 0.00 0.00 0.00 21 1014.7
20260508064809 30 234 0.0 4.8 0.00 0.00 0.00 20 1014.6
20260508064306 31 259 9.7 19.3 0.00 0.00 0.00 19 1014.3
20260508063803 30 325 9.7 12.9 0.00 0.00 0.00 18 1014.6
20260508063301 29 109 17.7 24.1 0.00 0.00 0.00 19 1014.7
20260508062758 30 194 4.8 11.3 0.00 0.00 0.00 20 1014.4
20260508062256 31 282 11.3 22.5 0.00 0.00 0.00 17 1014.1
20260508061752 31 235 17.7 25.7 0.00 0.00 0.00 18 1014.5
20260508061249 31 94 11.3 33.8 0.00 0.00 0.00 17 1014.6
20260508060746 31 327 9.7 25.7 0.00 0.00 0.00 17 1014.4
20260508060244 30 309 14.5 27.4 0.00 0.00 0.00 18 1014.6
20260508055739 32 289 14.5 35.4 0.00 0.00 0.00 16 1014.3
20260508055236 31 247 17.7 27.4 0.00 0.00 0.00 16 1014.4
20260508054733 31 328 17.7 24.1 0.00 0.00 0.00 16 1014.4
20260508054226 31 230 12.9 30.6 0.00 0.00 0.00 20 1014.7
20260508053722 32 237 9.7 32.2 0.00 0.00 0.00 17 1014.5
20260508053220 32 252 17.7 24.1 0.00 0.00 0.00 16 1014.6
20260508052717 31 303 14.5 17.7 0.00 0.00 0.00 16 1014.3
20260508052213 31 266 12.9 20.9 0.00 0.00 0.00 16 1014.6
20260508051710 32 179 12.9 32.2 0.00 0.00 0.00 19 1014.6
20260508051205 31 269 11.3 27.4 0.00 0.00 0.00 16 1014.6
20260508050702 31 230 29.0 37.0 0.00 0.00 0.00 17 1014.5
20260508050200 31 226 38.6 46.7 0.00 0.00 0.00 17 1014.3
20260508045700 31 249 14.5 27.4 0.00 0.00 0.00 16 1014.6
20260508045158 32 276 8.0 35.4 0.00 0.00 0.00 16 1014.5
20260508044655 31 251 22.5 25.7 0.00 0.00 0.00 17 1014.5
20260508044151 32 273 19.3 40.2 0.00 0.00 0.00 17 1014.4
20260508043647 31 273 14.5 29.0 0.00 0.00 0.00 17 1014.2
20260508043146 31 256 20.9 32.2 0.00 0.00 0.00 17 1014.5
20260508042642 31 236 35.4 37.0 0.00 0.00 0.00 16 1014.3
20260508042139 31 247 27.4 30.6 0.00 0.00 0.00 17 1014.5
20260508041635 31 244 20.9 40.2 0.00 0.00 0.00 18 1014.3
20260508041132 31 292 11.3 29.0 0.00 0.00 0.00 19 1014.1
20260508040629 31 265 22.5 30.6 0.00 0.00 0.00 17 1014.0
20260508040127 31 297 17.7 32.2 0.00 0.00 0.00 18 1013.9
20260508035624 31 287 12.9 37.0 0.00 0.00 0.00 19 1013.7
20260508035121 31 275 12.9 32.2 0.00 0.00 0.00 19 1013.7
20260508034618 31 301 25.7 30.6 0.00 0.00 0.00 20 1013.7
20260508034115 31 253 19.3 35.4 0.00 0.00 0.00 21 1013.6
20260508033612 31 298 19.3 32.2 0.00 0.00 0.00 22 1013.6
20260508033110 31 240 22.5 32.2 0.00 0.00 0.00 23 1013.3
20260508032606 31 314 33.8 43.5 0.00 0.00 0.00 24 1013.3
20260508032104 31 287 17.7 35.4 0.00 0.00 0.00 26 1013.1
20260508031601 31 299 24.1 41.8 0.00 0.00 0.00 26 1013.2
20260508031057 31 288 11.3 30.6 0.00 0.00 0.00 25 1013.2
20260508030553 31 283 17.7 35.4 0.00 0.00 0.00 26 1013.1
20260508030052 31 295 19.3 32.2 0.00 0.00 0.00 26 1012.9
20260508025547 31 293 30.6 41.8 0.00 0.00 0.00 27 1012.9
20260508025045 31 277 14.5 33.8 0.00 0.00 0.00 27 1013.0
20260508024540 31 279 14.5 37.0 0.00 0.00 0.00 26 1012.8
20260508024038 31 305 22.5 41.8 0.00 0.00 0.00 29 1012.8
20260508023534 31 290 19.3 35.4 0.00 0.00 0.00 28 1012.8
20260508023032 31 314 27.4 37.0 0.00 0.00 0.00 28 1012.9
20260508022527 31 266 11.3 29.0 0.00 0.00 0.00 26 1012.8
20260508022025 31 309 24.1 37.0 0.00 0.00 0.00 28 1012.5
20260508021520 31 296 24.1 40.2 0.00 0.00 0.00 29 1012.6
20260508021016 31 310 27.4 40.2 0.00 0.00 0.00 27 1012.6
20260508020514 32 284 16.1 37.0 0.00 0.00 0.00 27 1012.8
20260508020012 32 295 12.9 37.0 0.00 0.00 0.00 27 1012.5
20260508015509 31 293 19.3 30.6 0.00 0.00 0.00 28 1012.6
20260508015006 32 305 30.6 41.8 0.00 0.00 0.00 29 1012.7
20260508014502 32 285 22.5 27.4 0.00 0.00 0.00 29 1012.6
20260508013958 32 309 17.7 27.4 0.00 0.00 0.00 27 1012.5
20260508013454 32 282 9.7 37.0 0.00 0.00 0.00 27 1012.7
20260508012952 32 299 16.1 29.0 0.00 0.00 0.00 27 1012.8
20260508012449 32 293 9.7 29.0 0.00 0.00 0.00 24 1012.7
20260508011946 33 264 16.1 32.2 0.00 0.00 0.00 24 1012.7
20260508011444 33 257 22.5 30.6 0.00 0.00 0.00 23 1012.6
20260508010941 33 263 16.1 30.6 0.00 0.00 0.00 23 1012.9
20260508010438 33 256 19.3 30.6 0.00 0.00 0.00 23 1012.8
20260508005935 34 262 17.7 30.6 0.00 0.00 0.00 22 1012.9
20260508005432 34 259 24.1 32.2 0.00 0.00 0.00 22 1012.8
20260508004928 34 255 19.3 37.0 0.00 0.00 0.00 21 1012.8
20260508004425 35 258 19.3 27.4 0.00 0.00 0.00 21 1012.8
20260508003921 35 245 25.7 32.2 0.00 0.00 0.00 20 1012.9
20260508003418 35 278 6.4 32.2 0.00 0.00 0.00 19 1013.0
20260508002916 35 254 12.9 27.4 0.00 0.00 0.00 20 1013.0
20260508002412 35 258 20.9 32.2 0.00 0.00 0.00 20 1012.9
20260508001908 36 257 20.9 27.4 0.00 0.00 0.00 19 1012.8
20260508001404 35 247 17.7 24.1 0.00 0.00 0.00 18 1012.8
20260508000901 36 241 6.4 24.1 0.00 0.00 0.00 19 1013.0
20260508000357 36 269 16.1 27.4 0.00 0.00 0.00 18 1013.0
20260507235854 36 340 12.9 33.8 0.00 0.00 0.00 18 1012.9
20260507235352 36 293 9.7 22.5 0.00 0.00 0.00 19 1012.9
20260507234849 36 257 12.9 25.7 0.00 0.00 0.00 18 1012.8
20260507234345 36 238 27.4 30.6 0.00 0.00 0.00 17 1012.8
20260507233841 36 310 16.1 24.1 0.00 0.00 0.00 18 1013.1
20260507233339 36 236 14.5 30.6 0.00 0.00 0.00 19 1012.8
20260507232837 36 229 12.9 25.7 0.00 0.00 0.00 18 1012.7
20260507232333 36 247 17.7 32.2 0.00 0.00 0.00 18 1012.9
20260507231831 36 224 8.0 25.7 0.00 0.00 0.00 19 1013.0
20260507231327 37 253 12.9 16.1 0.00 0.00 0.00 17 1013.1
20260507230823 36 248 8.0 25.7 0.00 0.00 0.00 17 1013.0
20260507230321 36 243 20.9 27.4 0.00 0.00 0.00 17 1012.9
20260507225821 37 298 4.8 14.5 0.00 0.00 0.00 17 1013.1
20260507225317 37 314 6.4 9.7 0.00 0.00 0.00 16 1013.0
20260507224813 37 264 4.8 9.7 0.00 0.00 0.00 15 1013.1
20260507224310 36 101 4.8 8.0 0.00 0.00 0.00 15 1013.4
20260507223806 37 28 6.4 9.7 0.00 0.00 0.00 15 1013.2
20260507223302 38 62 8.0 9.7 0.00 0.00 0.00 15 1013.3
20260507222800 37 94 3.2 8.0 0.00 0.00 0.00 14 1013.3
20260507222256 37 227 0.0 16.1 0.00 0.00 0.00 13 1013.4
20260507221753 38 111 4.8 8.0 0.00 0.00 0.00 13 1013.4
20260507221249 37 71 8.0 9.7 0.00 0.00 0.00 13 1013.7
20260507220746 38 231 9.7 14.5 0.00 0.00 0.00 13 1013.5
20260507220244 38 227 6.4 9.7 0.00 0.00 0.00 13 1013.7
20260507215740 38 126 3.2 8.0 0.00 0.00 0.00 12 1014.1
20260507215232 38 202 3.2 4.8 0.00 0.00 0.00 12 1014.0
20260507214729 37 192 6.4 19.3 0.00 0.00 0.00 13 1014.1
20260507214226 38 93 8.0 9.7 0.00 0.00 0.00 13 1014.1
20260507213721 37 242 8.0 9.7 0.00 0.00 0.00 13 1014.3
20260507213219 36 7 3.2 8.0 0.00 0.00 0.00 14 1014.3
20260507212715 37 208 3.2 9.7 0.00 0.00 0.00 13 1014.5
20260507212212 36 330 3.2 8.0 0.00 0.00 0.00 13 1014.5
20260507211708 37 129 4.8 8.0 0.00 0.00 0.00 13 1014.4
20260507211204 37 136 4.8 8.0 0.00 0.00 0.00 13 1014.6
20260507210702 38 166 3.2 8.0 0.00 0.00 0.00 13 1014.8
20260507210158 37 167 3.2 16.1 0.00 0.00 0.00 13 1014.7
20260507205654 36 260 1.6 9.7 0.00 0.00 0.00 14 1014.6
20260507205151 37 248 3.2 6.4 0.00 0.00 0.00 14 1014.8
20260507204647 36 171 1.6 8.0 0.00 0.00 0.00 14 1015.0
20260507204145 36 311 1.6 8.0 0.00 0.00 0.00 14 1015.0